Preview of NWS' New Version of Forecast
This preview is not operational and should not be used for support decisions.

Regional Weather Roundup (RWR)

Issued by Gray - Portland, ME (GYX)

                            
000
ASUS41 KGYX 231805
RWRGYX
WEATHER ROUNDUP FOR MAINE AND NEW HAMPSHIRE
NATIONAL WEATHER SERVICE GRAY ME
200 PM EDT THU MAY 23 2019

MEZ002-005-006-010-012-015-018-020-021-024-026-027-029-231900-
MAINE
  
CITY           SKY/WX    TMP DP  RH WIND       PRES   REMARKS
PORTLAND       PTSUNNY   63  48  58 S14       30.04F                  
6HR MIN TEMP:  55; 6HR MAX TEMP:  64;                                

SANFORD        FAIR      70  50  49 SE8       30.01F                  
BAR HARBOR     FAIR      60  44  55 S14       30.10F                  
WISCASSET      FAIR      57  45  64 SE8       30.07F                  
6HR MIN TEMP:  52; 6HR MAX TEMP:  62;                                

ROCKLAND       FAIR      55  46  71 S9        30.09F                  
FRYEBURG       FAIR      69  44  40 VRB5      29.99F                  
6HR MIN TEMP:  54; 6HR MAX TEMP:  69;                                

LEWISTONAUBURN FAIR      62  47  57 S9        30.03F                  
AUGUSTA        FAIR      61  45  55 SE13      30.04F                  
6HR MIN TEMP:  49; 6HR MAX TEMP:  65;                                

WATERVILLE     FAIR      66  44  45 VRB6      30.00F                  
BANGOR         PTSUNNY   67  42  40 S13G23    30.05F                  
6HR MIN TEMP:  49; 6HR MAX TEMP:  69;                                

GREENVILLE       N/A     64  38  38 S9        30.00F                  
6HR MIN TEMP:  51; 6HR MAX TEMP:  65;                                

MILLINOCKET    FAIR      68  38  33 VRB6      30.05F                  
6HR MIN TEMP:  48; 6HR MAX TEMP:  68;                                

HOULTON        FAIR      63  39  41 S8        30.04F                  
6HR MIN TEMP:  48; 6HR MAX TEMP:  65;                                

PRESQUE ISLE   FAIR      65  40  39 VRB7      30.04F                  
6HR MIN TEMP:  45; 6HR MAX TEMP:  65;                                

FRENCHVILLE    FAIR      64  38  38 SE8       30.03F                  
6HR MIN TEMP:  48; 6HR MAX TEMP:  65;                                

CARIBOU        PTSUNNY   65  39  38 E8        30.03F                  
6HR MIN TEMP:  46; 6HR MAX TEMP:  66;                                

$$

NHZ002-005-008-009-011-012-014-231900-
NEW HAMPSHIRE
  
CITY           SKY/WX    TMP DP  RH WIND       PRES   REMARKS
PORTSMOUTH     PTSUNNY   69  51  52 SE10      29.99F                  
ROCHESTER      FAIR      72  50  45 CALM      30.00F                  
6HR MIN TEMP:  55; 6HR MAX TEMP:  73;                                

NASHUA         CLOUDY    69  55  60 VRB7      30.01F                  
MANCHESTER     PTSUNNY   71  51  49 S20G26    29.99F                  
6HR MIN TEMP:  56; 6HR MAX TEMP:  72;                                

CONCORD        FAIR      71  51  49 S12G18    29.99F                  
6HR MIN TEMP:  55; 6HR MAX TEMP:  74;                                

LACONIA        FAIR      66  49  54 NE8       29.99F                  
PLYMOUTH       FAIR      68  49  49 CALM      29.98F                  
BERLIN         NOT AVBL                                               
WHITEFIELD     FAIR      69  41  36 CALM      29.97F                  
6HR MIN TEMP:  54; 6HR MAX TEMP:  69;                                

JAFFREY        CLOUDY    67  52  58 S9        30.02F                  
6HR MIN TEMP:  54; 6HR MAX TEMP:  69;                                

KEENE          FAIR      70  55  59 S16       29.99F                  
LEBANON        FAIR      74  51  44 SW9       29.95F                  
6HR MIN TEMP:  56; 6HR MAX TEMP:  74;                                

MT WASHINGTON  FOG       43  43 100 W29         N/A  VSB 1/16         
6HR MIN TEMP:  32; 6HR MAX TEMP:  44;                                

$$

VTZ005-007-008-231900-
VERMONT
  
CITY           SKY/WX    TMP DP  RH WIND       PRES   REMARKS
ST JOHNSBURY     N/A     66  44  45 MISG      29.95F                  
MONTPELIER     FAIR      68  49  50 SE12      29.99F                  
BURLINGTON     CLOUDY    72  52  49 S12       29.91F                  
$$

MAZ007-012-024-CTZ003-RIZ002-NYZ038-NYZ072-231900-
SOUTHERN NEW ENGLAND AND NY
  
CITY           SKY/WX    TMP DP  RH WIND       PRES   REMARKS
BOSTON         PTSUNNY   68  49  50 SW23G35   30.04F                  
WORCESTER      FAIR      64  46  52 S23G29    30.03F                  
NANTUCKET      CLOUDY    57  48  72 S18       30.16F                  
PROVIDENCE     CLOUDY    63  49  60 SW22G28   30.10F                  
HARTFORD       PTSUNNY   71  46  40 S16G29    30.02F                  
ALBANY         LGT RAIN  66  56  70 S14G20    30.00S                  
NEW YORK CITY  PTSUNNY   73  52  47 SW12G21   30.05F                  
$$

ANZ081-ANZ082-ANZ150-NHZ014-MEZ023>029-231900-
COASTAL MARINE OBSERVATIONS
  
STATION/POSITION TIME  TEMP    WIND        PRES    WAVE
                       AIR SEA DIR/SP/G            HT/PER
                 (UTC) (F)     (DEG/KT/KT) (MB)    (FT/S)
ISLE OF SHOALS   1700   57     180/ 22/ 24 1017.3F
JEFFREYS LEDGE   1738      47                N/A     3/ 4
GEORGES BANK BUO 1750   47 45  190/  6/  8 1023.9F   3/ 9
$$

.............KEY..............
   WCI - WIND CHILL
   TC  - TEMPERATURE IN CELSIUS
   VSB - VISIBILITY IN MILES
   HX  - HEAT INDEX
   FAIR- INDICATES FEW OR NO CLOUDS BELOW 12,000 FT, WITH NO 
         SIGNIFICANT WEATHER AND/OR OBSTRUCTIONS TO VISIBILITY.